User: anonymous   Login
Location: Unspecified
(0.0000°N, 0.0000°E)
Time: 15:47:05
(UTC+02:00)
Language:

Cosmos 1538 Rocket - Orbit

View from above orbital plane
View from above orbital plane
View from above satellite
View from above satellite

Ground track
Ground track

The orbit data is extracted from the following two-line orbital elements,

1 14760U 84019B   16274.49990502  .00000107  00000-0  45651-4 0  9991
2 14760  74.0426 238.2172 0027566 164.4226 327.6377 14.35798434706319
Epoch (UTC): 30 September 2016 11:59:51
Eccentricity: 0.0027566
inclination: 74.0426°
perigee height: 753 km
apogee height: 792 km
right ascension of ascending node: 238.2172°
argument of perigee: 164.4226°
revolutions per day: 14.35798434
mean anomaly at epoch: 327.6377°
orbit number at epoch: 70631

The dashed part of the orbit path shows where the satellite is in the earth's shadow,  

DLR